Vertical_Velocity
-1 -1 -1 -1 9 -0 -4 -1 -2 -3 -2 -1 1 -2 1 1 -8 -0 -1 -3 -3 -0 3 -0 -0 -3 -0 -8 -3 -2 -2 1 3 -0 -1 -0 -1 -2 -7 -4 3 -1 -4 -13
-1 -0 0 -3 -2 -2 -1 -1 -1 -1 -3 -1 1 -3 -0 2 2 -5 2 -2 -3 -2 2 3 1 1 2 2 -2 1 -2 1 -0 -3 -0 1 1 -1 -6 -2 2 -0 -4 -3
-1 10 -5 0 -1 -1 2 2 -0 -1 -1 -3 -10 -1 -0 -3 2 1 -0 -4 1 -6 -6 -1 -1 -2 1 -4 1 -2 0 -1 0 -2 0 5 0 -4 -5 -4 1 -0 1 -1
-0 1 -1 -0 -1 -0 -3 0 -2 -1 -1 -2 1 11 1 0 -6 -5 -10 -8 0 0 -2 -2 -0 1 2 -0 -2 -2 0 1 0 0 0 -2 -2 -5 -10 -5 0 -0 1 6
-1 0 -1 -0 -2 -1 -2 -0 -2 -4 1 -5 15 -5 -11 1 1 -1 -5 6 -2 -2 1 -7 -3 -2 -0 2 -1 -1 -2 1 -1 -1 -1 -1 1 -1 -4 -5 -5 -2 -3 4
2 1 1 0 0 1 -1 -3 -0 3 -8 1 12 7 -11 -4 -9 -0 -0 0 3 -2 -3 -2 -4 -5 -3 -0 -1 -1 -1 -1 2 0 -0 -2 -2 -1 -2 -0 -4 -5 -3 -3
-3 -2 2 -0 -1 -2 -2 -0 -5 -3 42 -2 14 -6 14 -9 -14 8 -8 -1 3 -2 1 1 -1 -1 -2 -1 -0 1 -2 -1 0 -0 -1 0 1 -0 -2 -0 -2 -4 -4 -1
20 16 1 -1 -1 -4 -4 -5 -2 0 58 9 4 13 6 -3 -4 5 -6 -5 -1 -2 -12 -3 1 -1 -2 -4 -1 0 0 1 -0 -0 2 -0 1 -2 -1 -2 -3 -5 -5 -2
10 25 -6 3 -1 -4 1 -6 3 -9 -7 2 42 6 50 -9 -6 22 0 -5 -6 -2 -10 11 -1 -2 -0 -2 -3 -2 1 1 -0 -2 -3 -2 -1 1 1 -1 -3 -2 -4 -3
-5 1 11 -3 -1 -1 -2 -7 -9 12 -7 -5 19 4 -14 9 -6 -42 45 -2 -5 1 -3 -5 14 -7 -2 -1 -1 -2 -3 -1 0 1 1 0 0 -1 -1 -0 -0 -1 -0 -2
2 -3 -4 12 -7 -6 19 -8 1 4 6 5 3 7 12 -8 23 12 -25 -3 4 0 2 -2 0 -6 1 -3 -1 0 -1 -2 -0 1 -1 -0 -0 -1 -1 -2 -2 -2 -2 -1
-6 -1 -3 -8 -7 -2 -4 6 10 7 -7 -2 8 23 8 26 16 -3 -9 -11 -2 -3 -1 -1 1 -1 -16 20 -5 -4 2 -1 -1 -0 -1 -2 -1 -0 0 -1 -1 -2 -1 -3
-2 0 -4 -1 -2 25 22 7 7 -3 8 -5 2 53 -64 -11 -9 15 -1 -9 -8 -6 -5 -1 0 1 -2 -2 1 -3 -5 -0 -2 -2 -2 -1 -1 -0 0 2 1 -0 -1 -0
-1 1 -1 -1 -10 -3 -6 -8 -5 -2 -5 -1 -3 12 70 -29 4 -8 -16 -2 -48 41 -9 0 2 -1 4 1 -3 -3 -3 -2 -1 -1 -2 -0 -1 1 0 -0 0 1 -1 -1
-1 1 -1 -1 -2 2 0 -0 1 -4 0 -6 7 3 15 -23 -11 -23 -18 19 2 31 -4 -3 2 3 2 3 2 -2 -3 -5 -2 -0 2 0 1 -1 -1 -2 -1 0 -1 -2
-1 -1 -1 1 0 -1 -2 3 4 2 1 1 2 12 8 -15 -5 -9 -12 -10 -6 -1 4 9 -0 -0 1 1 4 1 -1 -1 -5 -1 3 2 9 -3 14 1 8 4 3 3
-1 -2 -2 1 -1 -2 1 -8 2 2 -1 -2 8 -8 -1 -1 8 -7 -11 -5 -5 2 4 -4 -7 0 -3 -3 1 5 1 -1 0 -9 1 1 -3 -0 2 -2 -2 -3 1 1
-1 -1 -1 0 0 0 -10 -5 1 6 3 2 1 -1 -9 -0 10 6 11 -10 -4 -2 1 -1 -2 2 1 -4 -3 4 1 -4 0 0 -1 -2 6 3 3 7 13 7 5 4
-2 -0 -2 -1 -1 1 5 -13 -5 -2 2 -12 -1 -4 3 0 1 15 -4 -7 -9 2 1 0 1 2 3 -5 -0 -1 -1 -0 -1 2 5 -6 24 -3 17 42 12 -2 -6 3
5 -5 4 2 0 2 -11 -8 7 7 5 -6 -1 2 0 0 -0 13 -20 3 -2 -1 -2 -3 -2 -3 0 -4 -2 -10 0 -2 -2 1 7 -1 -0 4 -5 12 117 6 10 5
-4 3 5 0 -1 6 -9 -1 0 0 -6 0 -4 -4 -3 -3 -2 -1 4 -0 -8 -4 2 -1 2 -4 -2 -2 -3 -5 2 -8 0 4 0 5 1 1 -4 -20 -28 24 22 17
1 -2 1 -2 0 2 -4 2 9 -4 -5 -1 -2 -3 -6 -5 0 -1 -2 -1 0 -2 -3 -2 -1 2 2 -2 -3 -1 -3 -7 1 -2 10 -4 -5 4 1 7 -22 51 20 2
-1 2 3 0 2 -7 -2 -5 -7 3 2 3 4 -2 -5 -2 -0 -1 -1 -1 -1 -1 -0 -2 -4 -2 4 -1 -1 0 3 -7 -4 5 2 -7 -0 3 -19 -50 -15 169 11 -4
-6 -5 5 7 2 8 -4 -6 -10 -2 -1 -0 1 -1 -0 -1 1 3 -0 0 -2 -2 -3 -2 -2 -0 3 -3 -4 0 -1 -9 -9 4 7 -17 1 11 -11 -8 -5 -5 5 -2
-0 -5 -4 -2 -3 5 4 -3 1 3 -5 -6 0 -4 -1 -3 1 -3 -1 1 -1 -2 0 -2 -2 1 5 0 -3 -4 1 0 -11 -1 6 9 -0 -5 -16 -9 -5 2 7 15
-2 -7 1 7 -6 -5 -2 3 1 -3 -1 -3 -5 -0 1 -5 -3 -1 0 2 3 3 2 -0 -2 -4 2 0 6 -3 -5 -3 -3 -4 1 -1 6 -5 -3 6 -2 7 12 4
Height
5908 5910 5909 5913 5919 5917 5914 5917 5917 5916 5915 5914 5914 5912 5911 5910 5907 5908 5908 5905 5903 5903 5902 5900 5899 5899 5900 5899 5900 5901 5902 5901 5900 5900 5901 5897 5902 5904 5905 5907 5908 5910 5911 5908
5908 5909 5910 5910 5913 5913 5914 5915 5915 5916 5914 5914 5914 5912 5912 5912 5911 5909 5908 5906 5904 5903 5903 5901 5900 5899 5899 5899 5899 5899 5899 5900 5899 5900 5900 5900 5902 5903 5904 5906 5907 5910 5910 5912
5906 5914 5908 5910 5911 5912 5913 5914 5914 5915 5914 5914 5912 5913 5913 5912 5912 5910 5908 5906 5906 5903 5902 5901 5900 5899 5898 5896 5898 5897 5897 5898 5898 5899 5899 5899 5901 5902 5903 5904 5906 5909 5909 5909
5905 5907 5907 5909 5910 5912 5913 5915 5914 5913 5914 5914 5915 5917 5913 5912 5909 5908 5907 5906 5906 5905 5902 5902 5901 5900 5899 5897 5895 5895 5896 5896 5896 5897 5897 5898 5899 5900 5902 5903 5905 5907 5910 5908
5904 5905 5906 5908 5909 5911 5912 5912 5913 5913 5913 5912 5915 5917 5912 5912 5912 5910 5910 5910 5906 5905 5904 5901 5900 5899 5898 5897 5895 5893 5893 5894 5893 5894 5895 5896 5897 5898 5899 5902 5902 5905 5907 5910
5904 5905 5907 5907 5909 5910 5911 5912 5912 5912 5911 5913 5917 5919 5912 5910 5909 5908 5908 5908 5908 5905 5904 5902 5899 5897 5896 5896 5894 5893 5893 5892 5892 5892 5893 5894 5894 5896 5897 5899 5900 5902 5904 5907
5905 5906 5907 5907 5908 5909 5911 5912 5912 5913 5912 5913 5916 5917 5913 5907 5907 5909 5904 5904 5904 5903 5903 5902 5900 5899 5897 5895 5894 5893 5891 5892 5891 5891 5891 5892 5893 5894 5896 5897 5899 5900 5902 5903
5912 5910 5907 5906 5907 5908 5910 5911 5914 5913 5917 5914 5913 5916 5910 5907 5906 5905 5901 5900 5901 5900 5899 5900 5899 5898 5896 5895 5894 5893 5892 5891 5891 5890 5891 5891 5891 5892 5893 5894 5896 5897 5898 5900
5906 5910 5905 5906 5906 5907 5910 5911 5913 5911 5914 5916 5915 5912 5912 5904 5906 5902 5898 5895 5896 5899 5902 5897 5898 5897 5896 5894 5893 5893 5892 5891 5890 5889 5890 5890 5890 5891 5891 5892 5893 5893 5895 5897
5900 5904 5907 5905 5904 5905 5906 5908 5908 5910 5911 5910 5912 5908 5903 5904 5901 5892 5893 5889 5892 5895 5897 5897 5897 5893 5893 5893 5892 5890 5890 5889 5888 5888 5889 5889 5888 5888 5889 5889 5890 5891 5892 5893
5897 5898 5902 5905 5902 5904 5906 5903 5905 5907 5908 5908 5909 5900 5900 5898 5896 5897 5888 5885 5890 5890 5892 5893 5893 5890 5890 5890 5890 5889 5888 5888 5887 5887 5886 5886 5887 5887 5886 5886 5887 5888 5888 5890
5891 5893 5894 5896 5899 5901 5904 5903 5903 5902 5902 5903 5902 5905 5892 5891 5878 5881 5883 5882 5884 5884 5885 5887 5888 5888 5886 5889 5884 5885 5886 5885 5885 5884 5883 5883 5884 5884 5884 5885 5885 5885 5886 5887
5888 5890 5889 5892 5899 5899 5899 5898 5898 5896 5898 5897 5899 5903 5872 5882 5879 5873 5871 5874 5873 5875 5879 5880 5881 5881 5881 5880 5880 5880 5880 5880 5880 5880 5880 5880 5881 5881 5881 5882 5882 5882 5882 5883
5883 5885 5885 5887 5887 5886 5886 5886 5886 5887 5888 5889 5891 5893 5882 5874 5871 5870 5864 5862 5857 5864 5869 5872 5874 5873 5873 5873 5873 5872 5874 5875 5875 5876 5876 5876 5876 5877 5877 5877 5878 5878 5878 5878
5879 5879 5878 5880 5880 5881 5881 5881 5880 5880 5880 5878 5880 5878 5878 5868 5862 5856 5855 5857 5850 5859 5861 5863 5863 5864 5864 5864 5865 5864 5865 5867 5869 5870 5871 5872 5872 5871 5871 5872 5872 5873 5874 5875
5872 5873 5872 5873 5873 5872 5873 5873 5872 5870 5870 5869 5868 5866 5857 5853 5852 5847 5845 5843 5842 5847 5851 5850 5849 5850 5852 5853 5854 5855 5856 5858 5860 5862 5863 5865 5866 5866 5867 5866 5867 5867 5869 5869
5867 5867 5866 5866 5866 5864 5866 5862 5862 5861 5861 5859 5857 5850 5844 5842 5841 5837 5834 5834 5830 5829 5831 5832 5831 5834 5837 5838 5840 5843 5845 5847 5848 5851 5854 5855 5857 5859 5861 5860 5860 5859 5860 5862
5861 5860 5859 5858 5858 5858 5855 5851 5850 5851 5851 5847 5842 5837 5833 5831 5829 5825 5825 5818 5813 5812 5812 5814 5816 5817 5820 5822 5825 5829 5830 5834 5836 5838 5841 5844 5848 5850 5852 5852 5852 5854 5853 5855
5853 5853 5852 5852 5850 5850 5850 5839 5839 5838 5838 5831 5826 5824 5822 5818 5814 5811 5807 5801 5797 5798 5801 5799 5799 5801 5803 5805 5810 5812 5816 5818 5822 5824 5827 5829 5832 5836 5839 5838 5841 5843 5845 5847
5848 5844 5846 5843 5842 5840 5835 5831 5831 5831 5826 5816 5814 5811 5808 5804 5800 5797 5791 5788 5786 5784 5784 5783 5784 5785 5787 5788 5792 5795 5800 5802 5805 5810 5811 5813 5818 5822 5824 5807 5817 5824 5834 5839
5838 5838 5837 5835 5832 5831 5822 5820 5819 5817 5813 5807 5803 5798 5794 5790 5788 5785 5783 5779 5774 5772 5772 5771 5771 5771 5772 5774 5776 5780 5783 5786 5788 5792 5793 5796 5802 5803 5807 5806 5808 5816 5820 5828
5832 5830 5829 5825 5823 5820 5812 5811 5809 5803 5797 5793 5789 5785 5782 5779 5777 5774 5772 5770 5767 5765 5763 5762 5762 5762 5762 5763 5764 5766 5768 5771 5772 5773 5775 5778 5785 5785 5786 5792 5771 5791 5807 5817
5824 5822 5819 5817 5814 5807 5802 5798 5793 5790 5786 5781 5779 5774 5771 5769 5767 5765 5764 5761 5759 5757 5755 5754 5753 5753 5753 5753 5754 5754 5755 5757 5758 5757 5758 5766 5772 5773 5776 5783 5788 5770 5798 5807
5813 5809 5809 5807 5804 5798 5792 5786 5780 5777 5773 5770 5767 5763 5761 5758 5757 5756 5754 5752 5750 5748 5744 5742 5741 5741 5742 5742 5741 5741 5743 5744 5744 5745 5746 5752 5757 5761 5771 5776 5780 5784 5790 5795
5807 5802 5797 5793 5788 5784 5781 5774 5770 5766 5762 5758 5756 5753 5751 5748 5747 5744 5743 5742 5739 5736 5734 5731 5729 5727 5726 5727 5726 5727 5728 5730 5731 5731 5734 5738 5741 5748 5757 5763 5765 5772 5773 5777
5796 5791 5788 5785 5778 5772 5767 5763 5758 5754 5751 5748 5745 5744 5742 5738 5736 5733 5731 5728 5725 5722 5720 5717 5714 5711 5710 5710 5710 5711 5712 5714 5716 5717 5721 5725 5729 5732 5741 5747 5750 5754 5759 5766